SP7WMI-13 Weather Reports


Display with metric or nautical units.
time (UTC)temp
F
wind
direction
speed
MPH
gust
MPH
rain 1hr
in
rain 24hr
in
rain mn
in
humidity
%
barometer
mb
20260506203334 69 315 0.0 0.0 0.00 0.00 0.00 55 1004.2
20260506201831 69 315 0.0 3.0 0.00 0.00 0.00 54 1004.1
20260506200328 70 315 0.0 0.0 0.00 0.00 0.00 54 1004.4
20260506194825 70 0 0.0 0.0 0.00 0.00 0.00 52 1004.6
20260506193322 71 0 0.0 0.0 0.00 0.00 0.00 50 1004.7
20260506191819 71 0 0.0 0.0 0.00 0.00 0.00 49 1004.6
20260506184813 71 0 0.0 0.0 0.00 0.00 0.00 47 1004.3
20260506183310 71 84 1.0 3.0 0.00 0.00 0.00 47 1004.1
20260506181807 72 62 1.0 4.0 0.00 0.00 0.00 45 1003.9
20260506180304 72 90 1.0 3.0 0.00 0.00 0.00 44 1003.9
20260506174803 73 54 2.0 4.0 0.00 0.00 0.00 43 1003.8
20260506173258 75 82 5.0 5.0 0.00 0.00 0.00 41 1004.0
20260506171755 77 299 0.0 3.0 0.00 0.00 0.00 40 1004.0
20260506170252 76 288 1.0 4.0 0.00 0.00 0.00 41 1003.9
20260506163245 76 315 0.0 6.0 0.00 0.00 0.00 41 1004.0
20260506160034 76 282 1.0 8.0 0.00 0.00 0.00 40 1004.0
20260506155344 75 270 9.0 9.0 0.00 0.00 0.00 40 1004.1
20260506154321 76 4 1.0 11.0 0.00 0.00 0.00 40 1004.1
20260506153818 76 274 11.0 11.0 0.00 0.00 0.00 40 1004.1
20260506153032 76 300 2.0 6.0 0.00 0.00 0.00 40 1004.1
20260506151529 76 79 4.0 8.0 0.00 0.00 0.00 40 1004.1
20260506150028 76 278 1.0 7.0 0.00 0.00 0.00 40 1004.1
20260506144525 75 92 2.0 8.0 0.00 0.00 0.00 41 1004.1
20260506143020 75 97 4.0 7.0 0.00 0.00 0.00 41 1004.1
20260506141517 76 290 1.0 8.0 0.00 0.00 0.00 41 1004.1
20260506140607 76 278 9.0 9.0 0.00 0.00 0.00 41 1004.3
20260506135215 75 314 0.0 6.0 0.00 0.00 0.00 43 1004.2
20260506133712 76 80 4.0 7.0 0.00 0.00 0.00 42 1004.3
20260506132209 78 291 2.0 6.0 0.00 0.00 0.00 41 1004.3
20260506131649 77 267 10.0 10.0 0.00 0.00 0.00 42 1004.2
20260506130951 76 317 2.0 7.0 0.00 0.00 0.00 44 1004.2
20260506125448 74 280 1.0 6.0 0.00 0.00 0.00 47 1004.3
20260506123945 76 265 2.0 7.0 0.00 0.00 0.00 46 1004.3
20260506122442 74 285 2.0 8.0 0.00 0.00 0.00 48 1004.4
20260506120939 74 270 1.0 6.0 0.00 0.00 0.00 50 1004.4
20260506120248 74 272 9.0 9.0 0.00 0.00 0.00 51 1004.4
20260506115745 73 283 1.0 8.0 0.00 0.00 0.00 54 1004.3
20260506114242 72 281 4.0 7.0 0.00 0.00 0.00 56 1004.5
20260506112739 71 270 2.0 6.0 0.00 0.00 0.00 59 1004.5
20260506111236 70 270 2.0 5.0 0.00 0.00 0.00 61 1004.5
20260506105733 70 271 5.0 8.0 0.00 0.00 0.00 59 1004.6
20260506104230 70 96 3.0 6.0 0.00 0.00 0.00 61 1004.3
20260506103726 70 270 11.0 11.0 0.00 0.00 0.00 61 1004.3
20260506102648 69 272 2.0 5.0 0.00 0.00 0.00 64 1004.4
20260506101145 69 313 1.0 7.0 0.00 0.00 0.00 63 1004.3
20260506100424 69 274 9.0 10.0 0.00 0.00 0.00 63 1004.4
20260506095921 69 262 3.0 8.0 0.00 0.00 0.00 65 1004.4
20260506094418 68 268 2.0 9.0 0.00 0.00 0.00 68 1004.2
20260506092915 68 274 3.0 6.0 0.00 0.00 0.00 69 1004.1
20260506091412 67 277 5.0 6.0 0.00 0.00 0.00 70 1004.1
20260506085909 66 270 1.0 8.0 0.00 0.00 0.00 75 1004.1
20260506085123 66 274 9.0 9.0 0.00 0.00 0.00 74 1004.1
20260506083758 65 112 1.0 1.0 0.00 0.00 0.00 80 1004.0